Location: Blanot
(47.1713°N, 4.2340°E)
Time: 09:59:02
(UTC+00:00)

Cosmos 1238 Rocket - Pass Details

Date: 14 July 2020
Orbit: 373 x 1030 km, 82.9° (Epoch: 05 August)

Event Time Altitude Azimuth Distance (km) Brightness Sun altitude
Exits shadow 00:49:52 38° 217° (SW) 1,158 3.9 -19.8°
Maximum altitude 00:51:41 61° 280° (W) 830 3.6 -19.8°
Drops below altitude 10° 00:56:12 10° 1° (N) 2,036 6.8 -19.5°
Sets 00:58:16 0° 5° (N) 2,848 8.0 -19.4°
